Location: Ettringen
(48.1054°N, 10.6545°E)
Time: 21:05:33
(UTC+00:00)

Cosmos 1464 Rocket - Pass Details

Date: 18 November 2025
Orbit: 950 x 1001 km, 82.9° (Epoch: 10 December)

Event Time Altitude Azimuth Distance (km) Brightness Sun altitude
Rises 17:40:58 0° 191° (S) 3,690 7.3 -20.6°
Reaches altitude 10° 17:43:29 10° 193° (SSW) 2,739 6.6 -21.0°
Maximum altitude 17:49:47 78° 279° (W) 1,003 4.1 -22.1°
Drops below altitude 10° 17:56:02 10° 7° (N) 2,721 6.2 -23.1°
Sets 17:58:33 0° 9° (N) 3,665 6.9 -23.5°
